CZ-6A DEB, 54901

Orbit data source: Space-Track

CZ-6A DEB, 54901 is space debris in SSO originally from a launch on Fri, 11 Nov 2022 UTC launched from the Taiyaun Space Center, China (TSC). Debris objects in space refer to the collection of defunct objects orbiting the Earth. Examples of debris include non-operational satellites, rocket bodies, and fragments generated from explosions, collisions, or faulty payload assembly.

Loading next visibility...
Identifier
54901, 2022-151QN
Orbit
SSO
Country
Flag of CNCN / PRC
Related business
Manufacturer
SAST
Mission
Spacecraft
Bus & Motor
Unknown
Mass
Unknown
Launch date (UTC)
2022-11-11 (4 years ago)
Launch vehicle
Unknown
Launch site
Taiyaun Space Center, China (TSC)
Object type
Payload
Rocket body
Debris
Shape & HBR
Unknown shape, 0.1 m
Radar Cross Section
Small (<0.1 m²)

Expand to show TLE details & history
Last TLE update: 3 days ago

TLE from 3 days ago
0 CZ-6A DEB
1 54901U 22151QN  26170.74309413  .00003303  00000-0  68873-3 0  9991
2 54901  98.6183 226.7680 0089531 306.1695  53.1244 14.58196112189615
Epoch: 2026-06-19T17:50Z
TLE epoch observation values (Epoch: 2026-06-19T17:50:03.332Z)
Latitude
-0.00009°
Longitude
51.28644°
Altitude
664.31 km
Speed
7.545 km/s
True Right ascension
15h 07m 04s
True Declination
0° 00' 00"
Sunlit
Object was in full shadow at epoch
Visualization orbit readout
Latitude
Unknown
Longitude
Unknown
Altitude
Unknown
Speed
Unknown
Apparent Right ascension
Unknown
Apparent Declination
Unknown
Sunlit
N/A
Visualization observer readout
Local Sidereal Time
21:37:06
Azimuth
Unknown
Elevation
Unknown
Doppler factor
Unknown
Orbital elements
Apogee altitude
759.444 km
Perigee altitude
632.771 km
Semi-major axis
7,074.245 km
Eccentricity
0.00895
Inclination
98.6183°
RAAN
226.768°
Arg. of periapsis
306.1695°
True anomaly
53.95062°
Mean anomaly
53.1244°
Eccentric anomaly
53.53696°
Mean motion
3.64773 °/min
Orbital period
98.69 mins
BSTAR
0.00068873
Loading maneuver chart data...
Computing Atmospheric mass density...
Loading historical data...
Loading historical data...
Loading historical data...
Loading historical data...
Loading historical data...
Loading historical data...
Loading historical data...

Documentation

Showing up to 5 results
|